Location: Gollag?dem
(16.8053°N, 80.8024°E)
Time: 13:21:30
(UTC+00:00)

deb Chang Zheng 4 - Pass Details

Date: 13 August 2020
Orbit: 604 x 625 km, 98.6° (Epoch: 24 September)

Event Time Altitude Azimuth Distance (km) Brightness Sun altitude
Rises 22:44:13 0° 8° (N) 2,901 7.4 -22.5°
Reaches altitude 10° 22:46:25 10° 6° (N) 1,994 6.5 -22.0°
Maximum altitude 22:50:44 68° 283° (WNW) 674 3.5 -21.1°
Enters shadow 22:51:31 54° 228° (SW) 758 3.6 -20.9°
